| time (UTC) | temp C | wind direction | speed KPH | gust KPH | rain 1hr cm | rain 24hr cm | rain mn cm | humidity % | barometer mb |
| 20260509053004 | 17 | 120 | 4.8 | 12.9 | 0.00 | 0.00 | 0.00 | 46 | 1020.9 |
| 20260509050004 | 17 | 114 | 6.4 | 12.9 | 0.00 | 0.00 | 0.00 | 45 | 1020.9 |
| 20260509043004 | 17 | 126 | 4.8 | 14.5 | 0.00 | 0.00 | 0.00 | 46 | 1020.9 |
| 20260509040004 | 17 | 118 | 6.4 | 19.3 | 0.00 | 0.00 | 0.00 | 46 | 1021.0 |
| 20260509033004 | 16 | 85 | 4.8 | 12.9 | 0.00 | 0.00 | 0.00 | 47 | 1021.0 |
| 20260509030004 | 15 | 125 | 6.4 | 12.9 | 0.00 | 0.00 | 0.00 | 49 | 1021.1 |
| 20260509023004 | 15 | 128 | 8.0 | 16.1 | 0.00 | 0.00 | 0.00 | 49 | 1021.5 |
| 20260509020003 | 15 | 126 | 9.7 | 19.3 | 0.00 | 0.00 | 0.00 | 49 | 1021.9 |
| 20260509013004 | 14 | 127 | 11.3 | 24.1 | 0.00 | 0.00 | 0.00 | 51 | 1022.1 |
| 20260509010004 | 15 | 82 | 9.7 | 17.7 | 0.00 | 0.00 | 0.00 | 50 | 1022.2 |
| 20260509003004 | 14 | 118 | 12.9 | 22.5 | 0.00 | 0.00 | 0.00 | 52 | 1022.3 |
| 20260509000004 | 13 | 84 | 11.3 | 22.5 | 0.00 | 0.00 | 0.00 | 54 | 1022.2 |
| 20260508233004 | 13 | 105 | 11.3 | 19.3 | 0.00 | 0.00 | 0.00 | 56 | 1022.3 |
| 20260508230004 | 12 | 126 | 14.5 | 22.5 | 0.00 | 0.00 | 0.00 | 59 | 1022.0 |
| 20260508223004 | 11 | 121 | 12.9 | 22.5 | 0.00 | 0.00 | 0.00 | 61 | 1021.8 |
| 20260508220004 | 10 | 130 | 12.9 | 24.1 | 0.00 | 0.00 | 0.00 | 62 | 1021.4 |
| 20260508213004 | 9 | 123 | 11.3 | 19.3 | 0.00 | 0.00 | 0.00 | 66 | 1020.8 |
| 20260508210004 | 8 | 120 | 11.3 | 16.1 | 0.00 | 0.00 | 0.00 | 69 | 1020.5 |
| 20260508120054 | 7 | 185 | 4.8 | 14.5 | 0.00 | 0.00 | 0.00 | 68 | 1019.3 |
| 20260508113053 | 7 | 175 | 3.2 | 14.5 | 0.00 | 0.00 | 0.00 | 70 | 1019.2 |
| 20260508110053 | 8 | 154 | 3.2 | 6.4 | 0.00 | 0.00 | 0.00 | 67 | 1019.3 |
| 20260508103053 | 8 | 182 | 1.6 | 6.4 | 0.00 | 0.00 | 0.00 | 64 | 1019.2 |
| 20260508100053 | 8 | 117 | 1.6 | 6.4 | 0.00 | 0.00 | 0.00 | 63 | 1018.6 |
| 20260508093053 | 9 | 165 | 1.6 | 8.0 | 0.00 | 0.00 | 0.00 | 60 | 1018.5 |
| 20260508090053 | 10 | 221 | 1.6 | 11.3 | 0.00 | 0.00 | 0.00 | 59 | 1018.3 |
| 20260508083053 | 10 | 148 | 1.6 | 8.0 | 0.00 | 0.00 | 0.00 | 56 | 1017.9 |
| 20260508080053 | 11 | 210 | 1.6 | 11.3 | 0.00 | 0.00 | 0.00 | 54 | 1017.6 |
| 20260508073053 | 12 | 260 | 3.2 | 12.9 | 0.00 | 0.00 | 0.00 | 51 | 1017.2 |
| 20260508070053 | 13 | 210 | 4.8 | 17.7 | 0.00 | 0.00 | 0.00 | 46 | 1016.7 |
| 20260508063054 | 15 | 231 | 4.8 | 14.5 | 0.00 | 0.00 | 0.00 | 43 | 1016.5 |
| 20260508060054 | 15 | 179 | 4.8 | 16.1 | 0.00 | 0.00 | 0.00 | 43 | 1016.5 |